Wind_Speed
24 25 24 23 21 21 21 21 21 22 23 21 19 18 17 18 20 21 21 20 18 17 15 14 14 14 14 15 16 16 17 17 16 16 14 13 12 11 11 11 11 11 11 12 11 11 10 9 9 9 9 9 10 11 11 12 12 11 11 10 9 7 6 5 4 4 3 4 5 6 6 7 7 7 7 7 6 6 6 5 4 4 3 2 2
25 26 26 26 25 23 23 22 22 22 22 19 18 18 18 20 22 21 20 19 17 15 14 14 15 15 15 15 16 16 17 16 16 15 13 12 11 10 10 10 10 11 11 11 11 10 9 9 9 9 9 9 10 10 11 12 12 11 10 9 8 8 6 4 3 3 3 4 5 6 7 7 7 7 7 7 6 6 6 6 5 4 3 2 1
26 27 28 29 28 27 26 25 24 23 21 19 18 19 20 21 22 20 19 17 15 14 14 15 15 15 15 16 16 16 17 16 16 14 12 10 10 9 9 9 10 10 11 11 10 10 9 9 9 8 8 9 10 10 11 11 12 11 10 9 8 7 6 4 3 2 2 3 5 6 7 7 7 7 7 7 7 7 7 6 6 5 3 2 1
27 28 30 32 31 30 30 28 26 25 22 20 20 21 22 22 21 19 18 16 15 14 14 15 15 16 16 16 17 17 16 16 15 13 11 10 9 9 8 9 10 11 11 11 11 10 9 9 9 8 8 9 10 10 10 11 11 11 9 8 8 7 5 4 3 2 2 3 5 6 7 7 7 7 7 7 7 7 7 7 6 5 3 2 1
29 31 33 34 32 32 32 30 28 26 24 23 23 23 23 22 20 19 17 16 15 14 15 15 16 16 17 17 17 16 16 15 14 12 10 9 9 8 8 9 10 11 12 12 11 10 9 9 9 9 9 9 10 10 10 10 10 10 9 8 7 6 4 3 2 2 2 3 4 6 7 7 7 7 7 7 7 8 7 7 6 5 4 3 2
32 34 35 34 32 33 34 32 30 27 25 24 24 23 22 22 20 19 17 16 15 15 15 16 17 17 17 17 17 16 15 14 13 11 10 9 9 8 8 9 10 11 12 12 11 10 10 10 9 9 9 10 9 9 10 10 10 9 8 7 6 5 4 2 1 2 2 3 4 6 6 7 7 7 7 7 7 8 8 7 7 6 5 4 3
34 36 35 33 34 36 35 33 30 27 26 25 24 23 22 21 20 19 17 17 16 16 16 17 17 18 18 18 18 16 15 14 12 11 10 9 9 8 8 9 10 11 12 12 11 11 10 10 10 10 10 10 9 9 10 10 9 8 8 6 5 4 3 2 1 1 2 3 4 5 6 6 7 7 7 7 7 8 8 8 7 7 6 5 5
37 36 34 35 37 37 36 33 29 27 26 24 23 22 22 21 20 19 18 17 16 16 17 17 18 19 19 19 18 17 15 13 12 11 10 10 9 9 8 9 11 12 12 12 12 11 11 11 11 10 10 10 9 9 9 9 9 8 7 6 5 4 2 1 1 1 2 2 4 5 6 6 6 6 7 7 7 8 8 8 8 7 7 6 6
38 37 36 38 38 35 34 32 28 26 25 24 23 23 23 22 21 19 18 17 17 17 17 18 19 19 20 20 19 17 15 12 12 11 11 11 11 10 9 10 11 12 13 13 12 12 12 12 11 11 11 10 9 8 8 9 9 8 6 5 4 3 2 1 2 2 2 3 4 5 6 6 6 6 7 7 7 8 8 8 8 8 8 7 7
39 39 40 39 35 32 32 30 27 26 25 24 23 23 23 22 21 20 18 17 17 18 17 18 20 20 21 20 19 18 15 12 11 11 11 12 12 11 11 11 12 13 13 13 13 13 12 12 12 11 11 10 9 8 8 9 9 9 6 4 4 3 2 2 3 3 2 3 4 4 5 6 6 6 6 7 8 8 8 8 8 8 8 8 8
40 41 41 38 33 30 29 27 26 26 25 24 24 24 23 23 22 21 19 18 18 18 18 19 20 21 22 21 20 18 15 13 12 12 12 12 12 12 12 12 12 13 14 14 14 14 13 12 12 12 11 10 9 8 7 8 10 9 6 4 4 3 3 3 3 3 3 4 3 3 3 4 5 6 6 7 8 8 9 9 9 9 9 9 8
40 40 39 35 31 28 27 27 27 26 25 25 26 25 24 24 23 21 20 19 19 19 19 20 21 22 22 22 21 18 15 13 13 13 13 13 13 13 13 13 14 14 15 15 15 15 13 12 12 12 11 10 8 7 6 7 10 10 7 5 5 4 4 4 4 4 3 4 3 2 2 2 4 5 7 7 8 8 9 9 9 10 10 10 9
39 37 35 31 29 28 27 27 26 26 26 27 27 26 25 24 22 21 20 19 19 19 19 21 22 23 23 23 22 19 16 14 14 14 14 14 14 14 14 14 15 15 16 16 16 15 13 12 12 12 11 10 8 7 5 6 9 11 8 6 6 5 5 4 4 4 4 4 3 3 2 2 4 5 7 7 8 8 9 9 10 10 10 10 10
36 34 32 29 29 28 27 26 26 26 27 28 28 27 25 23 22 21 20 20 20 20 20 22 23 23 23 23 23 21 17 15 15 15 16 15 15 16 15 15 16 16 17 18 17 16 14 13 13 12 11 10 9 7 5 6 9 11 10 7 6 6 5 5 4 4 4 4 4 3 3 2 3 4 5 7 8 8 8 9 9 10 10 11 11
32 30 29 28 28 27 26 26 27 28 29 29 28 27 25 23 22 21 21 21 20 20 21 22 23 24 23 23 23 22 19 16 15 16 17 16 17 17 16 16 17 18 18 19 18 17 16 15 15 14 13 12 10 8 6 6 8 11 11 8 6 6 6 5 5 5 4 4 5 5 4 3 3 3 4 5 7 7 8 8 9 10 10 11 11
28 28 27 27 26 25 24 26 28 29 29 29 27 26 25 23 22 22 22 21 20 20 21 22 23 24 24 23 23 23 21 18 17 17 17 18 18 17 18 18 19 20 21 21 19 17 17 17 17 16 15 13 12 10 7 6 8 11 11 9 6 7 7 6 6 6 6 5 5 6 6 4 4 3 3 4 5 6 7 8 9 9 10 11 11
26 26 25 24 22 22 24 26 27 28 28 27 26 26 25 24 23 23 22 21 20 20 21 22 23 24 24 23 23 23 21 19 18 18 17 18 19 19 20 20 19 21 23 24 22 18 17 18 19 18 16 14 13 11 8 7 9 11 11 9 7 7 8 7 7 7 7 6 6 6 6 6 5 5 4 4 4 5 6 7 8 9 9 10 11
23 24 23 22 21 22 24 26 27 27 27 27 27 26 26 25 24 23 22 21 20 21 22 21 21 22 23 23 23 23 22 21 19 18 18 19 20 21 23 22 20 20 23 27 26 21 17 18 19 19 17 15 14 11 8 8 9 11 11 10 8 8 8 8 8 9 8 7 7 6 6 6 6 6 5 4 3 4 5 6 7 8 9 9 10
22 23 24 23 23 24 25 26 27 27 27 27 27 27 27 26 25 23 22 21 20 21 21 21 21 22 22 22 23 24 23 22 20 19 19 20 21 22 24 23 20 20 22 26 29 24 18 18 19 19 17 15 14 12 8 7 9 11 12 11 10 8 8 8 9 9 9 8 8 7 6 6 6 6 6 5 4 4 4 5 6 7 8 9 9
23 24 25 25 25 26 26 27 27 27 27 27 27 27 27 26 24 23 21 21 22 22 22 22 22 22 22 22 23 23 24 23 21 19 20 22 22 23 23 20 18 20 21 23 28 25 19 18 19 18 16 15 14 11 8 7 9 11 12 12 11 9 8 9 9 10 9 9 8 7 7 7 7 7 6 6 5 5 5 5 6 6 7 8 8
25 24 25 25 26 26 27 27 26 26 26 26 27 26 26 26 24 23 23 24 23 22 23 23 23 24 23 21 22 23 24 24 21 20 20 22 23 21 18 16 17 18 19 22 25 22 18 18 19 18 15 15 13 11 8 7 9 12 12 12 11 9 9 10 11 10 9 9 8 8 8 8 8 8 8 8 7 7 7 7 7 7 7 8 8
26 25 25 26 26 27 28 27 26 26 26 26 27 26 26 25 24 24 25 24 23 22 23 24 25 25 24 22 22 24 24 23 23 22 22 22 23 21 18 17 18 16 18 23 23 19 18 18 18 17 15 15 13 11 8 6 9 12 13 12 11 10 10 11 12 10 9 8 9 9 9 9 9 10 10 9 9 9 8 8 8 8 8 8 8
26 26 26 26 27 28 28 27 26 27 26 26 26 26 25 24 24 24 23 22 22 23 24 26 26 26 25 24 24 25 24 23 23 23 24 24 21 19 18 18 16 15 18 21 20 17 18 18 17 17 16 15 14 12 8 5 9 12 13 12 11 11 11 11 12 10 8 8 9 10 11 11 11 11 11 11 11 11 10 10 10 9 9 9 8
27 26 26 27 27 28 27 26 27 27 26 26 26 25 24 23 23 22 22 21 22 23 24 26 26 26 26 25 25 25 24 24 24 25 25 24 19 16 15 15 15 17 19 19 17 17 17 16 15 15 15 15 15 13 8 5 9 12 13 13 13 12 12 12 11 10 8 9 10 11 12 13 13 13 13 13 12 12 12 11 11 10 10 10 10
28 28 26 27 28 28 27 27 27 27 26 26 26 24 23 21 21 21 20 21 22 23 24 26 26 26 26 25 25 25 25 24 24 25 24 21 17 15 15 16 19 20 19 16 15 16 16 15 14 13 14 15 15 12 8 7 9 12 14 14 14 13 12 12 11 10 9 10 11 13 14 14 14 13 14 14 14 14 13 13 12 12 12 12 12
25 25 25 27 27 26 27 27 27 27 27 25 24 22 20 19 19 20 20 20 22 22 24 26 26 26 26 26 26 25 25 24 24 24 22 20 19 19 20 22 21 19 16 14 14 15 14 13 13 13 13 14 14 12 10 8 10 13 14 15 15 14 13 12 11 11 11 12 13 14 15 15 14 14 14 15 15 15 15 14 14 14 14 14 14
22 21 22 24 24 26 27 27 27 26 25 24 22 19 18 18 18 18 19 20 22 22 23 24 25 25 25 26 26 25 24 24 24 23 22 21 22 22 22 20 18 16 14 13 13 14 13 12 12 13 13 13 13 11 10 9 10 14 15 15 15 15 14 13 12 12 13 14 15 16 16 16 15 15 15 15 15 15 16 16 16 16 16 16 16
24 23 22 22 24 25 27 27 26 25 25 22 20 18 17 16 16 17 18 19 21 22 21 21 23 24 24 26 26 25 24 23 23 23 21 21 22 20 16 15 14 14 13 13 13 13 11 11 12 13 14 13 12 11 9 9 11 14 15 15 15 15 14 14 13 13 14 16 16 16 16 16 16 17 16 16 16 16 16 17 17 17 17 17 17
24 24 23 24 25 26 26 27 26 24 23 21 20 18 16 15 16 18 18 19 20 21 21 21 22 23 23 24 24 24 24 24 24 22 21 20 18 15 13 12 12 12 13 13 13 11 11 12 13 14 15 14 13 11 9 8 10 13 14 15 15 14 14 13 13 14 15 16 16 16 16 17 17 17 16 16 16 16 16 17 18 18 18 18 19
24 23 23 24 25 27 28 28 26 23 21 18 18 17 15 15 17 18 19 19 18 19 21 21 21 20 21 22 23 24 24 24 23 21 19 17 15 13 12 11 11 12 13 13 12 11 11 13 14 15 16 15 13 11 9 8 10 12 14 14 14 13 12 12 13 15 15 15 15 15 16 16 16 16 15 15 16 16 17 17 18 19 19 19 20
22 21 21 21 22 23 25 27 25 23 20 18 17 15 15 15 15 16 16 16 16 18 21 20 19 20 21 22 22 22 22 20 18 17 17 15 14 13 12 12 12 13 13 12 11 11 12 13 14 15 16 14 13 11 9 9 10 11 13 13 11 10 11 12 14 15 15 14 14 14 15 14 14 14 15 15 16 16 16 17 18 19 20 20 21
18 17 18 18 19 19 19 22 22 20 18 18 16 14 12 13 12 11 12 13 15 17 18 19 19 19 20 21 20 19 17 15 14 15 15 14 13 13 13 13 14 12 11 10 10 11 12 13 14 15 15 14 13 11 10 10 11 11 12 11 10 10 11 13 15 15 15 14 13 12 12 12 12 12 13 13 14 14 15 16 17 18 19 20 21
14 14 14 15 15 17 18 18 19 16 13 14 12 11 10 11 11 10 10 13 15 16 16 17 19 19 19 17 15 14 13 13 14 15 14 13 13 14 14 15 14 11 10 10 10 11 12 13 14 15 15 15 14 11 11 11 12 12 10 9 9 11 13 14 13 12 12 12 11 10 9 9 10 10 10 11 11 12 13 14 15 17 18 19 20
14 15 15 14 14 17 16 14 15 12 11 11 11 12 12 12 11 10 11 12 14 16 17 17 16 13 11 9 8 9 9 11 13 14 13 13 13 14 15 15 13 11 9 10 11 11 11 12 13 14 14 14 13 12 11 10 11 12 10 8 10 13 14 12 10 8 8 9 9 8 8 8 9 9 9 10 11 11 12 13 14 16 16 18 19
16 17 18 17 16 17 15 11 12 11 12 13 12 12 13 13 12 11 11 10 11 13 14 13 8 5 4 5 6 7 8 9 12 13 12 12 13 13 14 14 13 10 9 9 10 11 11 11 11 12 13 12 12 12 11 10 10 10 8 8 11 13 12 10 8 7 7 7 7 7 8 8 9 9 10 10 10 11 11 12 14 15 15 16 17
17 18 19 19 19 18 14 11 11 11 12 12 10 9 10 11 11 10 10 8 7 8 9 9 7 6 6 6 6 6 7 9 11 12 12 12 12 12 13 14 12 10 9 9 10 10 11 12 12 11 11 12 11 11 11 9 8 7 7 8 10 10 8 7 7 6 7 7 7 7 8 8 8 8 9 9 9 9 10 10 11 13 14 16 16
18 19 19 18 18 16 12 11 13 14 13 12 10 9 8 8 9 11 10 8 7 7 8 9 9 9 8 7 7 8 9 11 12 13 13 14 13 12 13 13 11 9 8 8 9 10 11 12 11 11 11 12 12 11 10 9 8 6 7 9 9 8 6 5 6 6 6 6 6 7 8 8 7 7 8 8 8 8 8 9 9 10 12 13 14
17 18 18 15 14 13 11 11 14 15 15 13 12 10 9 8 8 10 10 10 10 10 11 11 11 10 8 8 8 9 11 12 12 12 12 13 12 11 12 12 10 8 7 8 9 10 10 10 10 10 10 12 14 13 11 8 7 6 8 9 7 6 5 4 5 6 5 6 7 7 8 8 6 6 7 7 7 7 7 7 8 8 9 10 10
15 16 16 14 13 12 12 13 14 16 15 14 13 12 11 11 11 10 10 11 12 12 12 11 9 7 6 6 7 8 9 8 8 8 9 10 10 10 10 9 8 8 8 9 10 10 10 10 9 9 9 11 14 15 12 7 6 7 8 8 6 6 5 5 5 6 6 7 7 7 6 6 6 6 6 6 6 6 7 7 7 8 8 9 9
13 14 14 13 13 13 13 14 15 16 15 15 14 13 13 13 13 12 11 12 11 11 10 8 6 5 5 6 6 7 7 6 6 7 8 8 8 9 8 8 8 9 9 10 11 11 11 10 9 10 9 9 11 13 12 9 7 8 7 7 7 7 6 5 5 5 6 7 7 6 6 6 6 6 6 7 7 7 8 8 7 7 8 10 11
12 13 13 13 12 13 13 14 15 16 16 15 14 13 13 13 12 12 12 12 11 10 9 9 8 7 7 6 6 7 7 7 7 7 7 7 8 8 8 8 9 10 11 11 11 11 11 10 10 10 10 10 11 12 13 12 11 10 8 8 9 8 6 5 4 5 6 7 8 7 7 7 7 8 8 8 9 9 10 9 8 9 10 12 13
12 13 12 12 12 13 13 14 15 15 15 15 14 14 13 12 11 12 12 12 12 11 11 10 9 8 8 7 8 8 7 7 7 7 7 7 8 9 10 10 10 11 12 13 13 13 12 12 11 11 11 11 12 12 13 13 12 11 10 10 11 9 6 5 6 7 8 8 8 8 8 8 8 8 8 9 10 11 11 10 10 11 12 13 14
13 13 13 12 11 11 12 13 14 14 14 14 14 13 12 11 11 12 13 13 12 12 11 10 9 9 9 9 9 8 8 8 8 8 8 9 10 11 12 12 12 13 13 13 14 14 13 13 13 13 13 13 12 13 13 13 12 12 12 12 12 10 8 8 9 10 10 10 10 10 9 8 8 9 10 11 13 13 12 12 12 12 13 14 15
13 14 13 11 11 11 11 12 13 14 15 15 14 14 13 12 12 13 13 14 13 12 11 10 9 10 10 9 9 10 10 11 11 11 11 12 12 13 13 13 13 14 14 14 13 14 14 14 14 14 15 14 13 13 13 12 12 13 13 13 13 11 10 10 12 12 12 11 11 11 9 9 10 11 13 14 14 13 13 13 14 14 15 16 17
14 14 13 12 12 13 13 13 14 14 15 16 16 16 15 15 14 14 14 13 13 12 11 10 9 9 9 10 11 12 12 13 13 13 13 12 12 13 14 14 14 15 14 14 14 14 14 14 15 15 15 15 13 13 13 13 13 13 13 14 14 13 11 12 13 14 13 12 12 12 10 10 12 13 15 15 15 14 14 14 15 16 16 17 18
15 15 13 13 13 14 14 14 14 14 15 16 17 16 16 15 14 14 13 12 11 11 11 10 8 8 9 10 11 12 13 13 13 12 12 12 12 12 13 13 14 15 15 14 14 14 14 14 14 15 15 15 14 14 14 14 14 14 15 15 15 13 13 14 15 14 13 13 14 12 11 12 14 15 16 16 15 14 15 15 16 17 17 18 19
15 15 14 14 14 14 14 13 13 13 14 15 16 16 15 14 13 12 12 12 12 14 13 11 9 9 10 10 11 12 12 11 11 11 12 12 12 12 13 13 13 14 14 14 13 13 14 14 14 15 16 15 15 15 15 15 15 15 16 16 15 14 15 16 15 14 14 15 15 14 13 15 16 17 16 15 15 15 16 17 17 18 18 18 18
16 15 15 14 13 13 14 13 13 14 14 13 13 14 14 13 13 13 13 14 16 17 16 13 11 9 10 11 11 11 10 9 10 11 11 11 12 12 12 13 13 13 14 14 13 13 13 13 14 14 14 14 14 15 15 16 16 16 16 16 16 16 16 17 16 16 16 16 16 15 15 17 17 17 16 15 15 15 17 18 18 18 18 17 17
17 15 14 13 13 14 14 13 13 14 15 15 15 15 15 15 15 15 14 15 17 18 18 16 14 11 10 10 10 9 8 8 9 10 11 10 10 11 12 13 14 14 13 13 12 12 12 12 12 11 11 12 13 14 15 16 16 16 16 16 16 17 17 17 17 17 17 17 17 16 17 18 17 16 16 15 15 16 17 17 17 16 16 16 17
16 14 13 14 14 14 14 14 14 15 16 17 17 17 17 16 15 15 14 15 17 18 18 17 15 12 11 9 9 8 8 8 9 10 11 10 9 10 11 12 13 14 13 13 12 12 11 11 11 10 11 12 13 14 15 15 16 16 17 16 16 17 17 18 18 18 18 18 17 17 17 18 17 17 17 16 15 17 18 17 16 16 16 16 17
16 14 14 15 15 14 14 14 14 14 15 16 16 16 15 14 14 14 15 16 17 16 15 14 13 12 10 9 9 8 8 8 9 10 10 10 9 9 9 11 12 13 14 13 13 12 12 12 12 12 12 13 13 13 14 14 15 16 16 15 15 16 17 17 18 19 18 18 17 16 17 18 18 18 18 16 16 17 17 16 16 16 16 16 17
Wind_Direction
268 277 286 295 298 294 293 292 292 294 294 291 292 298 301 306 312 311 309 309 309 310 312 313 316 320 325 328 330 334 335 334 334 333 328 321 316 314 316 315 314 314 313 311 311 313 314 316 320 324 324 323 323 321 320 317 315 314 314 313 314 317 317 308 295 278 257 232 221 217 212 203 200 206 207 200 189 182 173 164 154 139 116 84 38
272 280 287 293 294 295 296 293 292 295 296 292 293 298 301 307 311 310 307 306 306 307 310 311 314 317 322 326 328 331 333 333 333 331 324 317 314 314 315 314 315 315 312 309 310 314 317 320 320 322 324 323 321 320 319 317 315 316 317 318 321 323 319 311 298 282 261 233 219 217 214 205 200 205 208 201 193 188 180 170 162 150 134 107 45
275 283 288 291 292 295 298 296 293 294 295 294 296 298 301 307 309 306 303 301 301 304 306 308 311 314 319 323 325 329 331 331 331 329 320 313 312 313 315 317 318 315 310 308 311 316 320 322 320 320 323 323 320 318 317 316 316 317 320 322 324 324 321 316 307 292 268 238 219 215 215 210 202 204 208 204 198 194 187 176 166 157 148 132 65
279 284 288 290 290 293 297 295 293 292 292 293 298 299 301 305 304 300 298 296 296 299 302 304 307 311 315 318 323 328 330 328 328 325 316 311 311 312 316 321 320 315 311 310 313 318 323 323 321 323 324 322 319 319 318 315 315 316 319 321 322 323 322 319 308 293 273 244 222 213 215 213 206 204 206 205 201 198 192 182 172 165 162 160 180
279 283 287 289 289 293 295 294 292 290 287 291 297 299 300 301 298 294 292 290 291 295 298 301 304 308 311 315 319 325 327 326 325 320 311 310 312 311 315 321 319 315 311 309 313 319 324 321 322 326 324 320 319 321 318 312 311 314 319 322 323 326 329 325 303 293 273 240 225 215 215 215 209 206 206 205 202 199 195 188 179 174 174 180 196
277 281 285 285 288 293 292 291 290 286 282 289 295 297 296 294 291 289 287 287 288 291 295 299 303 305 308 310 314 321 325 322 320 314 304 307 312 309 312 316 316 315 309 307 313 319 321 318 321 325 321 318 319 318 313 309 308 314 321 323 325 330 334 329 308 296 270 235 227 220 217 216 212 209 210 207 205 201 197 192 186 182 182 190 201
274 279 281 281 287 290 288 288 286 281 279 285 291 292 290 288 285 284 284 284 287 290 295 298 301 302 304 306 309 317 323 319 314 306 297 301 307 306 306 309 312 314 308 306 313 319 319 316 320 322 315 312 314 311 307 306 306 312 320 321 321 328 333 331 315 289 261 234 230 226 220 217 213 213 215 212 210 206 200 196 192 190 190 196 205
270 276 277 280 287 287 284 284 281 276 276 282 285 285 284 282 280 280 280 282 286 290 293 296 297 298 300 302 306 314 320 313 306 299 292 292 298 301 301 304 307 311 308 307 314 318 317 315 318 317 310 307 307 304 303 303 304 309 315 317 318 325 328 306 258 252 237 229 229 230 224 219 214 215 220 219 216 212 205 201 199 197 197 201 209
268 274 277 282 285 281 279 280 276 272 274 278 279 279 278 276 276 276 277 279 283 287 290 293 294 295 297 299 304 310 315 307 298 294 288 284 287 292 297 300 302 306 307 308 314 316 316 314 315 312 306 304 301 299 301 301 303 305 308 315 317 319 308 243 214 212 214 220 223 229 228 220 214 216 223 225 222 219 213 208 206 204 204 207 210
269 273 278 280 279 276 274 274 271 269 271 273 275 275 273 272 272 272 274 276 279 283 286 289 290 292 294 296 300 305 309 300 290 287 283 280 281 285 289 295 299 303 305 308 313 314 314 313 311 308 304 303 299 299 302 301 301 300 303 313 309 300 274 232 209 197 209 219 212 218 223 218 215 217 226 230 227 224 220 215 212 212 212 214 215
271 273 276 275 272 271 269 268 268 267 268 270 272 271 270 270 270 271 272 273 276 279 282 285 287 289 291 293 296 300 303 294 282 280 278 277 278 280 282 288 295 300 304 308 312 313 313 312 309 306 304 304 302 304 306 303 299 294 298 304 290 276 257 232 210 195 210 224 206 197 210 220 221 223 228 231 231 228 227 223 218 216 216 218 220
270 271 272 270 267 265 263 264 265 266 267 269 271 271 272 272 272 273 272 272 273 276 279 281 283 285 287 289 291 294 295 287 276 273 274 274 276 278 280 285 290 296 302 305 307 310 312 311 308 306 304 306 305 307 310 305 298 291 293 292 276 267 255 235 212 200 211 226 208 193 211 239 238 233 232 232 233 232 231 231 227 224 221 221 222
267 268 268 264 261 261 261 263 264 266 267 268 270 271 273 274 273 274 272 272 273 275 276 278 280 282 285 287 288 289 288 279 271 269 270 272 274 276 279 282 285 292 297 299 302 306 308 307 306 307 306 306 305 307 313 307 296 289 287 280 273 268 259 242 218 208 216 223 204 190 208 243 247 240 238 238 238 236 234 235 234 233 231 229 228
266 265 263 259 259 260 261 263 264 264 265 268 270 271 273 273 273 273 272 272 273 274 274 275 276 279 282 285 286 286 283 274 267 266 267 269 273 276 279 282 284 288 290 292 296 300 301 301 302 305 305 305 304 306 313 305 291 285 280 275 274 269 261 246 225 215 216 220 206 192 202 227 247 248 247 248 247 243 240 240 240 240 238 238 237
261 259 259 258 259 260 261 261 261 263 266 268 270 271 273 273 272 271 270 270 271 273 272 273 274 276 279 281 282 282 280 273 267 267 266 267 270 273 275 277 280 282 284 287 290 294 296 296 298 301 301 299 298 302 309 298 282 277 274 274 274 268 260 247 226 216 212 217 215 203 201 210 233 247 252 254 254 252 247 245 245 245 244 243 243
253 253 254 255 256 257 257 257 260 263 266 268 270 272 272 272 270 268 268 268 270 271 270 271 272 274 275 277 278 278 278 274 270 268 266 266 269 271 270 268 272 278 279 279 281 288 292 293 295 299 299 295 291 294 298 286 271 268 269 270 269 264 258 246 227 219 216 216 220 213 203 205 214 227 241 249 253 254 252 250 250 249 248 246 246
248 248 249 249 250 253 255 258 261 264 267 270 272 272 272 269 268 267 268 268 269 270 268 267 269 272 273 274 274 275 275 274 271 268 266 266 269 270 267 264 267 274 278 276 274 278 286 289 292 297 299 295 289 287 286 273 260 259 262 264 263 261 256 247 233 223 220 215 215 215 207 204 211 216 224 236 247 251 252 253 253 253 251 249 247
247 246 244 244 248 252 256 260 263 267 270 272 273 272 270 268 267 267 268 267 267 268 265 263 265 268 270 270 272 273 273 271 269 266 263 262 266 267 267 269 267 268 275 278 276 272 278 285 289 294 298 295 290 284 276 261 252 250 254 257 256 257 256 249 239 230 223 218 213 211 211 210 215 219 223 231 243 251 254 254 254 255 255 253 251
249 247 244 245 249 253 257 262 267 271 274 274 274 271 270 269 267 267 265 262 266 266 260 256 259 263 267 270 272 274 273 271 268 263 260 261 265 268 271 276 272 266 272 281 281 275 274 281 285 292 295 294 290 283 269 251 248 247 248 250 249 250 254 250 242 236 226 220 219 215 216 220 220 221 226 232 240 253 260 261 257 255 255 256 255
250 248 246 248 251 255 260 265 270 273 275 275 274 272 271 269 268 265 259 261 267 265 255 253 261 267 269 271 274 276 276 275 272 263 259 262 264 269 275 277 271 266 271 286 288 280 276 279 283 288 291 291 288 281 266 242 242 246 246 246 246 244 251 251 242 238 231 223 221 221 222 225 225 224 227 230 236 246 255 262 264 262 260 258 258
247 247 246 248 251 256 261 265 270 273 274 274 274 274 272 270 268 263 260 265 270 263 254 256 266 271 269 269 271 273 276 277 275 268 264 264 265 270 277 277 273 270 276 290 289 278 275 278 281 284 286 287 285 279 265 238 237 245 247 246 245 242 245 250 245 236 232 227 223 222 224 225 228 228 226 226 230 238 246 254 260 262 264 264 263
241 242 244 247 250 255 259 263 267 270 272 273 274 273 271 270 268 265 265 269 269 262 257 261 268 269 265 265 265 266 271 272 270 267 266 267 267 268 270 274 275 275 283 290 283 273 272 275 277 280 281 283 282 278 267 239 236 244 248 249 246 241 238 245 249 238 227 227 227 225 224 225 228 228 226 225 226 232 238 245 253 259 263 266 266
237 238 241 245 249 253 256 261 265 269 272 273 273 271 270 269 268 267 268 269 267 263 260 263 266 264 263 264 262 262 266 266 264 264 265 269 269 264 263 264 265 274 285 283 274 269 272 272 274 278 280 282 282 280 275 250 242 246 250 252 248 241 235 238 248 245 226 221 225 227 226 224 226 227 227 227 227 229 233 238 246 253 260 265 267
234 236 240 243 247 251 256 260 265 269 272 272 271 270 269 268 268 268 266 265 264 262 261 262 263 262 263 265 263 263 266 264 263 264 266 270 267 255 253 253 260 277 280 271 265 269 271 271 275 279 282 282 281 280 280 258 247 250 253 252 250 243 236 234 242 247 236 223 223 227 228 227 226 227 230 231 230 230 231 233 238 245 252 258 263
234 233 239 244 247 252 258 262 266 268 270 271 270 269 269 268 269 267 263 262 261 260 259 259 260 262 264 266 264 266 268 266 264 265 268 270 258 246 249 255 265 272 267 258 261 267 268 272 278 280 280 278 278 281 276 252 240 246 248 248 247 244 239 234 235 241 241 233 228 228 229 229 228 229 232 234 234 232 232 233 235 239 244 249 255
239 233 237 246 252 258 263 265 267 270 271 271 270 269 267 266 265 264 265 264 260 257 257 258 260 262 265 266 267 269 270 268 266 268 272 266 250 245 251 255 257 257 251 251 259 264 265 271 276 276 275 274 278 281 273 247 232 237 239 238 239 237 235 233 231 235 237 238 235 232 231 231 231 232 234 236 236 234 234 235 236 237 240 244 249
245 245 248 253 258 263 267 270 272 273 273 272 270 269 268 268 265 261 264 264 259 257 257 257 258 260 263 266 269 271 271 267 268 274 275 263 252 252 254 250 247 244 245 252 258 260 264 268 270 270 271 272 274 275 270 248 230 234 234 230 229 228 226 224 225 229 233 236 237 236 235 235 235 234 236 237 236 235 236 238 239 240 242 244 246
255 263 267 267 266 267 270 273 275 275 274 273 273 274 274 273 267 261 260 259 261 261 258 255 257 259 261 265 269 270 268 266 270 275 273 263 257 255 250 243 240 242 247 254 258 260 263 264 264 265 268 269 266 264 263 249 234 235 235 229 225 222 219 218 221 226 231 235 236 237 238 239 238 238 238 239 240 240 241 242 243 244 246 247 248
266 270 272 273 273 274 275 274 273 274 275 275 277 279 279 276 267 263 261 259 260 260 256 255 258 259 259 262 267 268 266 266 270 273 271 266 256 246 239 239 240 244 251 257 260 261 261 260 259 261 265 265 263 260 257 250 240 237 236 231 226 221 217 216 220 225 230 234 237 239 240 241 241 242 244 246 249 250 250 249 248 248 249 250 251
270 271 273 276 278 279 278 274 269 270 275 276 277 277 277 277 270 265 265 261 256 253 254 256 256 257 257 259 263 267 268 267 267 268 267 260 247 239 240 243 246 250 257 262 263 262 260 260 257 259 262 262 262 260 254 248 243 239 235 231 227 223 218 216 220 225 229 234 239 241 242 243 245 248 251 253 256 257 256 255 253 252 251 251 252
268 273 278 281 282 282 281 276 267 263 268 274 276 275 272 273 270 264 262 259 253 253 256 255 253 255 259 262 264 269 269 264 259 257 252 245 239 241 244 249 255 259 264 266 265 264 262 259 257 258 258 256 259 258 248 243 243 240 234 230 230 226 222 221 223 226 228 230 235 239 242 244 247 249 250 252 255 257 257 256 256 254 253 252 252
267 275 281 285 287 288 288 279 268 262 268 275 277 274 268 269 268 261 260 261 258 257 257 253 252 258 264 268 269 269 264 251 244 241 235 234 236 238 245 256 262 262 264 264 264 263 259 257 256 255 251 250 256 250 238 239 235 231 228 229 231 226 223 223 224 226 226 226 230 236 243 247 249 248 249 251 254 258 260 260 259 257 255 253 252
267 276 283 290 297 299 295 279 266 267 272 274 275 274 272 273 265 256 263 264 258 254 254 255 258 263 267 269 267 260 250 240 234 230 229 234 237 239 250 260 261 260 260 260 261 258 255 256 255 252 247 247 251 238 231 237 228 222 226 229 225 221 220 219 221 226 226 225 229 235 244 248 249 248 249 252 254 255 258 259 258 256 254 253 252
267 274 277 283 298 307 303 279 265 272 273 270 275 274 272 270 260 260 266 261 254 249 249 256 261 261 261 262 258 248 243 238 230 230 239 245 245 249 258 263 263 262 258 254 255 254 253 255 255 251 245 244 244 231 226 231 224 223 234 232 222 222 221 216 217 225 224 224 229 232 237 240 241 242 244 250 251 251 252 254 256 256 256 255 255
270 276 277 274 284 302 309 291 278 280 276 275 273 264 261 260 257 263 265 254 244 239 240 246 251 255 259 258 251 246 246 242 238 242 251 252 251 257 264 268 269 265 259 254 253 253 250 249 253 251 242 236 232 223 219 225 224 227 232 223 218 221 220 213 215 221 220 222 224 221 225 231 233 237 242 249 253 254 255 257 260 261 260 260 259
275 277 277 272 276 292 305 301 291 284 274 268 261 252 251 253 253 254 253 243 226 219 222 230 244 268 273 263 256 250 244 243 246 251 253 253 254 260 265 266 267 264 261 259 255 251 246 243 247 248 240 230 222 214 217 228 228 220 216 213 216 221 219 212 210 209 210 212 213 215 222 228 232 235 239 245 250 253 254 256 257 257 258 259 259
275 272 273 274 276 284 298 302 293 284 273 264 256 248 243 246 247 244 242 237 228 221 226 237 254 268 272 269 267 256 248 247 250 253 255 255 255 255 257 260 261 258 256 256 252 245 241 241 241 240 235 227 222 218 223 232 226 213 214 219 223 224 219 212 207 205 210 213 218 224 228 229 233 232 231 236 242 245 247 249 249 249 252 255 257
272 269 271 279 283 286 292 291 285 281 277 272 263 250 240 240 241 239 237 236 236 237 243 251 259 265 267 267 264 257 253 253 252 252 252 251 249 246 249 253 254 249 243 245 246 243 240 240 238 235 234 230 228 225 224 226 218 209 215 223 225 219 213 206 200 201 205 212 222 228 228 230 233 231 228 234 240 243 246 248 249 249 252 255 257
272 273 276 282 287 286 281 276 274 274 273 272 267 254 242 239 239 237 236 236 239 243 248 253 255 255 254 253 255 254 251 249 246 243 243 243 241 239 240 241 237 234 235 239 242 242 239 237 237 237 238 235 228 222 220 222 220 217 218 221 221 215 211 204 193 192 195 204 217 223 223 223 225 228 232 240 245 248 251 251 252 254 257 261 265
272 275 277 282 284 279 273 269 270 271 270 268 264 257 246 240 238 235 234 236 237 239 239 233 225 226 233 238 239 235 229 226 225 226 230 236 240 240 237 230 225 228 235 238 240 240 237 234 236 239 237 229 221 219 225 236 237 230 223 220 222 220 216 211 201 195 197 205 215 220 222 222 223 228 236 247 251 251 253 254 259 264 265 267 269
271 274 275 279 280 277 273 270 269 269 269 267 263 258 251 242 234 229 227 227 226 225 218 209 210 221 229 228 218 210 206 207 210 213 219 228 238 245 243 235 232 233 235 236 235 235 237 237 235 236 235 227 223 226 235 242 241 238 234 228 231 229 217 216 219 216 215 217 218 220 224 226 228 233 238 248 252 252 256 262 268 270 269 268 269
273 276 275 275 276 274 271 267 266 268 270 270 266 259 251 239 227 221 219 218 217 215 211 212 218 222 220 213 209 206 205 208 213 220 226 234 241 246 247 243 240 237 236 234 232 231 232 233 231 231 233 230 228 231 236 238 238 240 238 234 237 235 217 214 226 229 228 230 228 225 226 227 235 244 247 250 253 256 261 268 271 271 271 269 269
276 276 274 274 272 269 265 263 264 268 272 273 266 256 246 231 219 215 215 215 214 214 216 219 220 215 208 205 208 216 225 232 238 244 247 247 248 249 248 245 243 241 239 237 234 232 229 229 228 229 231 229 227 230 233 235 236 235 232 232 237 234 219 217 226 230 231 235 238 236 235 237 243 248 249 251 256 262 268 272 273 273 272 271 270
277 274 272 271 267 263 262 263 264 266 268 267 260 251 240 228 221 218 217 215 215 216 216 213 207 203 204 209 221 235 244 248 252 254 252 250 250 251 249 246 245 244 242 239 236 233 231 231 230 231 231 229 228 231 233 235 235 232 230 231 234 231 222 223 229 234 236 238 241 242 243 247 248 248 251 255 261 267 272 274 273 271 271 272 275
276 273 271 268 263 260 261 262 263 264 265 262 255 247 237 229 223 219 216 216 216 213 207 201 199 204 213 224 235 243 248 250 251 249 248 247 247 248 248 246 244 244 244 241 237 235 233 234 234 233 232 232 233 235 237 237 234 232 234 236 234 230 227 229 233 238 243 245 245 245 246 248 249 250 255 259 264 269 274 274 271 269 271 276 280
278 274 272 265 258 256 256 258 260 263 264 259 250 241 234 227 222 219 215 211 208 205 200 197 203 216 227 233 238 243 247 250 252 251 250 249 246 244 245 245 244 245 245 243 239 237 237 238 237 235 233 234 238 241 243 240 237 237 240 241 237 231 230 233 237 240 244 248 248 247 246 247 250 252 254 258 263 269 272 270 267 268 273 279 282
280 273 267 259 254 254 253 254 257 261 260 253 244 235 228 224 220 220 215 206 205 204 199 201 212 222 230 236 239 244 247 250 252 252 251 250 248 246 244 245 247 248 248 245 240 238 241 242 241 239 238 238 240 243 245 242 240 241 242 242 239 236 237 240 243 243 243 247 250 249 246 245 247 250 255 259 263 267 267 265 264 269 275 279 281
276 266 260 254 252 253 253 254 254 256 254 247 241 236 230 225 222 222 217 211 212 211 209 218 233 235 237 242 243 243 243 243 244 243 245 248 249 248 244 241 243 245 247 246 243 241 242 243 242 242 243 244 244 243 242 242 242 242 243 243 242 243 245 247 248 248 247 248 250 251 248 247 248 252 256 260 262 263 262 261 264 269 274 277 280
268 261 256 252 253 254 254 255 254 252 252 250 249 247 241 237 234 231 225 219 219 220 224 237 247 243 238 241 241 238 236 237 239 238 238 240 243 245 242 237 236 239 243 245 245 243 240 241 242 243 246 247 246 244 244 245 247 248 249 249 249 249 251 251 252 252 250 248 248 250 251 252 255 257 258 259 259 261 261 261 265 269 272 275 277
262 255 251 251 253 255 256 256 255 253 253 253 253 252 247 242 240 236 232 229 230 233 238 244 246 240 236 236 236 236 235 235 238 238 236 232 232 236 238 236 233 233 237 240 241 241 240 240 241 244 247 248 248 249 250 252 253 254 256 256 256 256 256 255 254 253 251 248 248 250 253 257 260 261 260 259 259 260 261 262 264 267 269 272 274
259 250 246 251 253 256 257 256 256 256 255 254 250 247 243 240 241 239 237 236 237 240 241 241 239 237 235 234 234 237 238 238 241 242 241 236 231 230 235 236 233 230 232 235 237 239 240 241 243 245 248 251 254 255 257 257 257 258 258 258 258 258 257 255 253 252 251 251 253 255 257 258 259 260 260 260 259 259 260 261 262 263 266 268 270
Height
5854 5855 5856 5857 5857 5857 5856 5855 5854 5853 5852 5852 5852 5851 5851 5851 5851 5851 5850 5850 5849 5849 5848 5847 5847 5846 5846 5845 5845 5844 5844 5843 5842 5841 5841 5840 5840 5839 5838 5838 5837 5836 5836 5835 5835 5836 5836 5835 5835 5835 5835 5835 5834 5834 5834 5833 5832 5832 5831 5831 5830 5830 5830 5830 5829 5829 5829 5829 5829 5829 5829 5829 5829 5830 5830 5830 5830 5830 5830 5831 5831 5831 5831 5831 5832
5853 5853 5854 5855 5856 5856 5855 5854 5853 5852 5851 5850 5850 5850 5850 5850 5850 5850 5849 5849 5848 5848 5847 5846 5846 5845 5845 5844 5844 5843 5843 5842 5841 5841 5840 5840 5839 5839 5838 5837 5837 5836 5835 5835 5835 5836 5836 5835 5835 5835 5835 5835 5834 5834 5833 5833 5832 5831 5831 5831 5830 5830 5830 5830 5829 5829 5829 5829 5829 5829 5829 5829 5829 5829 5830 5830 5830 5830 5830 5831 5831 5831 5831 5832 5832
5852 5853 5853 5854 5854 5854 5853 5852 5851 5850 5850 5849 5849 5849 5849 5849 5849 5848 5848 5847 5847 5846 5846 5845 5844 5844 5844 5843 5843 5843 5842 5842 5841 5840 5840 5839 5839 5838 5838 5837 5836 5836 5835 5835 5835 5835 5835 5835 5835 5835 5835 5835 5834 5834 5833 5833 5832 5831 5831 5831 5830 5830 5830 5830 5829 5829 5829 5829 5829 5829 5829 5829 5829 5829 5829 5830 5830 5830 5830 5831 5831 5831 5831 5832 5832
5851 5852 5852 5852 5852 5852 5852 5851 5850 5849 5849 5848 5848 5848 5848 5848 5848 5847 5846 5846 5845 5845 5844 5844 5843 5843 5843 5842 5842 5842 5842 5841 5840 5840 5839 5839 5838 5838 5837 5837 5836 5836 5835 5835 5835 5835 5835 5835 5834 5835 5834 5834 5834 5834 5833 5832 5832 5831 5831 5831 5830 5830 5830 5830 5829 5829 5829 5829 5829 5829 5830 5829 5829 5829 5829 5830 5830 5830 5830 5831 5831 5831 5832 5832 5832
5850 5851 5851 5851 5850 5850 5850 5849 5848 5848 5848 5847 5847 5847 5847 5846 5846 5845 5845 5845 5844 5844 5843 5843 5842 5842 5842 5841 5841 5841 5841 5840 5840 5839 5839 5838 5838 5837 5837 5836 5836 5835 5834 5834 5835 5835 5835 5834 5834 5834 5834 5834 5834 5834 5833 5832 5831 5831 5831 5830 5830 5830 5830 5830 5829 5829 5829 5829 5829 5829 5830 5829 5829 5829 5829 5830 5830 5830 5830 5831 5831 5831 5832 5832 5832
5849 5849 5849 5849 5848 5848 5848 5847 5847 5847 5846 5846 5846 5845 5845 5845 5844 5844 5844 5844 5843 5842 5842 5841 5841 5841 5840 5840 5840 5840 5840 5839 5839 5839 5838 5838 5837 5837 5837 5836 5835 5835 5834 5834 5834 5835 5834 5834 5834 5834 5834 5834 5834 5833 5832 5831 5831 5830 5830 5830 5830 5830 5830 5829 5830 5829 5829 5829 5829 5830 5830 5830 5829 5829 5829 5830 5830 5830 5830 5831 5831 5831 5832 5832 5833
5847 5847 5847 5847 5847 5846 5846 5846 5846 5845 5845 5845 5845 5844 5844 5843 5842 5842 5842 5842 5841 5841 5840 5840 5840 5839 5839 5839 5839 5840 5840 5839 5838 5838 5837 5837 5837 5837 5836 5835 5835 5834 5833 5833 5834 5834 5834 5834 5834 5834 5834 5834 5834 5833 5832 5831 5830 5830 5830 5830 5830 5830 5829 5830 5830 5829 5829 5829 5829 5830 5830 5830 5830 5830 5830 5830 5830 5830 5831 5831 5831 5831 5832 5832 5833
5845 5845 5845 5845 5845 5844 5844 5844 5844 5844 5843 5843 5843 5842 5842 5841 5841 5841 5840 5840 5840 5840 5839 5839 5838 5838 5838 5838 5838 5839 5839 5838 5838 5837 5837 5836 5836 5836 5836 5835 5834 5834 5833 5833 5833 5833 5833 5833 5833 5833 5833 5834 5833 5833 5832 5830 5829 5829 5830 5830 5829 5829 5829 5829 5829 5829 5829 5829 5829 5829 5829 5830 5830 5830 5830 5830 5830 5830 5831 5831 5831 5831 5832 5832 5833
5843 5843 5843 5843 5842 5842 5841 5842 5842 5842 5842 5841 5841 5841 5840 5840 5839 5839 5839 5838 5838 5838 5838 5837 5837 5836 5836 5836 5837 5837 5838 5837 5837 5836 5836 5836 5835 5835 5835 5834 5834 5833 5832 5832 5833 5833 5833 5833 5833 5833 5833 5833 5833 5832 5831 5830 5829 5829 5829 5829 5829 5829 5829 5829 5829 5829 5829 5829 5829 5829 5829 5829 5829 5830 5830 5830 5830 5831 5831 5831 5831 5832 5832 5832 5833
5841 5841 5840 5840 5840 5840 5839 5839 5840 5840 5839 5839 5839 5839 5838 5838 5838 5838 5837 5837 5837 5836 5836 5836 5835 5835 5835 5835 5835 5836 5836 5836 5836 5835 5835 5834 5834 5834 5834 5834 5833 5833 5832 5831 5832 5832 5833 5832 5832 5832 5832 5833 5832 5832 5831 5830 5828 5828 5829 5829 5829 5829 5829 5829 5829 5829 5829 5829 5829 5829 5829 5829 5829 5829 5830 5830 5831 5831 5831 5831 5831 5832 5832 5833 5833
5838 5838 5838 5838 5838 5838 5838 5838 5837 5837 5837 5837 5837 5837 5837 5836 5836 5836 5836 5835 5835 5835 5835 5834 5833 5833 5833 5833 5834 5835 5835 5835 5834 5834 5834 5833 5833 5833 5833 5833 5833 5832 5831 5831 5831 5832 5832 5832 5831 5832 5832 5832 5832 5832 5831 5830 5828 5828 5828 5829 5828 5829 5829 5829 5829 5829 5829 5830 5829 5829 5829 5829 5829 5829 5830 5830 5830 5831 5831 5831 5832 5832 5832 5833 5833
5836 5835 5835 5835 5836 5836 5836 5835 5835 5835 5835 5835 5835 5835 5835 5835 5835 5834 5834 5834 5834 5833 5833 5832 5832 5831 5831 5832 5832 5833 5833 5833 5833 5833 5833 5832 5832 5832 5832 5833 5832 5832 5831 5830 5830 5831 5831 5831 5830 5831 5831 5831 5831 5831 5831 5830 5828 5827 5828 5828 5828 5828 5829 5829 5829 5829 5830 5830 5830 5829 5829 5829 5829 5829 5830 5830 5830 5830 5831 5831 5831 5832 5832 5833 5833
5833 5833 5833 5833 5834 5834 5833 5833 5834 5834 5834 5833 5833 5833 5833 5833 5833 5833 5833 5833 5832 5832 5832 5831 5830 5830 5830 5830 5831 5831 5832 5832 5832 5832 5831 5831 5831 5831 5832 5832 5832 5832 5831 5830 5829 5830 5830 5830 5830 5830 5831 5831 5831 5831 5831 5830 5828 5827 5827 5828 5827 5828 5829 5829 5830 5830 5830 5830 5830 5830 5830 5830 5830 5830 5830 5830 5830 5830 5830 5831 5831 5832 5832 5833 5833
5830 5830 5831 5831 5831 5831 5831 5832 5832 5832 5832 5831 5831 5831 5831 5831 5831 5831 5831 5831 5831 5831 5830 5830 5829 5829 5829 5829 5829 5829 5830 5831 5831 5830 5830 5830 5830 5831 5831 5831 5831 5831 5830 5829 5829 5829 5829 5829 5829 5830 5830 5830 5830 5831 5831 5831 5829 5827 5826 5827 5828 5828 5829 5829 5830 5830 5831 5831 5831 5830 5830 5830 5830 5830 5830 5831 5831 5831 5831 5831 5831 5832 5832 5833 5833
5828 5828 5829 5829 5829 5829 5830 5830 5830 5830 5829 5829 5829 5829 5829 5829 5830 5830 5830 5830 5830 5829 5829 5828 5828 5828 5828 5827 5827 5827 5828 5829 5829 5829 5829 5830 5830 5830 5830 5831 5830 5830 5829 5829 5828 5828 5828 5828 5828 5829 5829 5830 5830 5831 5831 5830 5829 5826 5826 5827 5828 5828 5828 5829 5829 5830 5830 5831 5831 5830 5830 5830 5831 5831 5831 5831 5831 5831 5831 5831 5831 5832 5832 5833 5833
5826 5826 5827 5827 5827 5827 5827 5827 5827 5827 5827 5827 5827 5827 5827 5827 5828 5828 5828 5828 5828 5828 5827 5827 5826 5826 5826 5826 5826 5826 5827 5828 5828 5828 5828 5829 5828 5829 5829 5829 5829 5829 5828 5828 5827 5827 5827 5826 5827 5827 5828 5828 5829 5830 5831 5830 5828 5826 5825 5826 5827 5828 5828 5829 5829 5829 5830 5830 5830 5830 5830 5830 5830 5830 5831 5831 5831 5831 5831 5831 5832 5832 5832 5833 5833
5824 5824 5825 5825 5825 5825 5825 5825 5825 5825 5824 5824 5824 5825 5825 5825 5826 5826 5826 5826 5826 5826 5825 5825 5825 5825 5825 5825 5825 5825 5825 5826 5826 5827 5827 5827 5827 5827 5827 5828 5828 5828 5827 5827 5826 5825 5825 5825 5825 5826 5827 5827 5828 5829 5830 5830 5828 5826 5825 5826 5827 5827 5828 5828 5829 5829 5829 5829 5830 5830 5830 5830 5830 5830 5830 5830 5831 5831 5831 5831 5832 5832 5832 5832 5833
5821 5822 5822 5822 5822 5823 5822 5822 5822 5822 5822 5822 5822 5823 5823 5823 5824 5824 5824 5824 5824 5824 5823 5823 5823 5823 5823 5824 5824 5824 5824 5824 5825 5825 5826 5826 5826 5826 5826 5826 5827 5827 5826 5826 5825 5824 5824 5824 5824 5824 5825 5826 5826 5828 5829 5829 5827 5825 5824 5825 5826 5827 5827 5828 5828 5828 5828 5829 5829 5830 5830 5830 5830 5830 5830 5830 5830 5831 5831 5831 5831 5832 5832 5832 5832
5819 5819 5820 5820 5820 5820 5820 5820 5820 5820 5820 5820 5820 5821 5821 5821 5822 5822 5822 5822 5822 5822 5822 5822 5822 5822 5823 5823 5823 5822 5822 5822 5823 5824 5824 5824 5824 5824 5824 5825 5825 5825 5825 5824 5824 5823 5822 5822 5822 5823 5823 5824 5825 5827 5828 5828 5826 5824 5823 5824 5825 5826 5827 5827 5827 5827 5828 5828 5829 5830 5830 5831 5831 5831 5831 5830 5830 5830 5831 5831 5831 5831 5832 5832 5832
5817 5817 5817 5817 5817 5817 5817 5817 5818 5818 5818 5818 5818 5818 5819 5819 5819 5820 5820 5820 5820 5820 5820 5820 5821 5821 5822 5822 5821 5821 5821 5821 5821 5822 5822 5823 5823 5823 5823 5823 5824 5824 5824 5823 5823 5822 5822 5821 5821 5821 5822 5823 5824 5825 5827 5827 5826 5824 5823 5823 5824 5825 5826 5826 5826 5827 5827 5828 5829 5829 5830 5830 5831 5831 5831 5831 5830 5830 5830 5830 5831 5831 5831 5831 5832
5814 5814 5814 5815 5815 5815 5815 5816 5816 5816 5816 5816 5816 5817 5817 5817 5817 5818 5818 5818 5818 5819 5819 5819 5820 5820 5820 5820 5819 5819 5819 5819 5819 5820 5821 5821 5821 5821 5822 5822 5822 5822 5822 5822 5822 5822 5821 5820 5819 5820 5821 5821 5822 5824 5825 5826 5825 5823 5822 5822 5823 5824 5825 5824 5825 5826 5826 5827 5828 5829 5829 5829 5830 5830 5830 5830 5830 5830 5830 5830 5830 5830 5831 5831 5831
5810 5811 5812 5812 5813 5813 5813 5814 5814 5814 5815 5815 5815 5815 5815 5815 5815 5816 5816 5816 5817 5817 5817 5818 5818 5817 5817 5818 5818 5818 5818 5818 5818 5818 5819 5819 5819 5820 5820 5821 5821 5821 5821 5820 5820 5820 5820 5819 5818 5819 5820 5820 5821 5822 5824 5825 5824 5822 5821 5822 5822 5823 5823 5823 5823 5825 5826 5827 5827 5828 5828 5828 5829 5829 5829 5829 5830 5829 5829 5829 5829 5830 5830 5830 5830
5807 5808 5809 5810 5811 5811 5811 5811 5812 5812 5813 5813 5813 5813 5813 5813 5814 5814 5814 5815 5815 5815 5816 5815 5815 5815 5815 5816 5816 5816 5816 5816 5816 5817 5817 5817 5818 5818 5818 5819 5819 5819 5819 5819 5819 5819 5819 5818 5818 5818 5818 5819 5819 5820 5823 5824 5823 5821 5821 5821 5821 5821 5822 5822 5822 5823 5825 5826 5827 5827 5827 5827 5828 5828 5828 5828 5828 5828 5828 5829 5829 5829 5829 5829 5829
5804 5806 5807 5808 5808 5808 5809 5809 5810 5811 5811 5811 5811 5811 5811 5811 5812 5812 5812 5813 5813 5813 5813 5813 5813 5813 5813 5814 5814 5814 5814 5815 5815 5815 5815 5816 5816 5816 5816 5817 5818 5818 5818 5818 5818 5818 5817 5817 5817 5817 5817 5817 5817 5819 5821 5822 5822 5821 5820 5820 5820 5820 5820 5821 5822 5823 5824 5825 5826 5826 5826 5826 5827 5827 5827 5827 5827 5827 5828 5828 5828 5828 5828 5828 5828
5802 5804 5805 5806 5806 5806 5808 5808 5809 5809 5809 5809 5808 5809 5809 5810 5810 5810 5810 5810 5810 5810 5811 5811 5811 5811 5811 5812 5812 5812 5813 5813 5814 5813 5814 5814 5814 5814 5815 5815 5816 5816 5817 5817 5816 5816 5816 5816 5816 5816 5816 5815 5816 5817 5819 5820 5820 5819 5819 5819 5819 5819 5819 5820 5821 5822 5823 5824 5824 5824 5824 5825 5825 5826 5826 5826 5826 5826 5827 5827 5827 5828 5828 5828 5827
5800 5801 5803 5804 5806 5807 5807 5807 5807 5807 5807 5807 5807 5807 5807 5808 5808 5808 5808 5808 5808 5808 5809 5809 5809 5809 5810 5810 5810 5811 5811 5811 5812 5812 5812 5812 5812 5812 5812 5813 5813 5814 5815 5815 5815 5816 5816 5815 5815 5815 5814 5814 5814 5816 5817 5818 5817 5816 5816 5816 5817 5817 5818 5819 5820 5821 5822 5822 5822 5822 5823 5823 5824 5825 5825 5825 5825 5825 5826 5826 5826 5827 5827 5827 5827
5800 5801 5803 5804 5805 5806 5806 5806 5806 5806 5806 5806 5805 5805 5806 5806 5807 5807 5807 5806 5806 5806 5807 5807 5807 5807 5807 5808 5808 5809 5809 5809 5810 5810 5810 5810 5809 5809 5810 5811 5812 5813 5814 5814 5815 5815 5815 5814 5814 5813 5813 5813 5813 5814 5815 5815 5815 5814 5814 5814 5815 5815 5817 5818 5819 5819 5819 5819 5820 5820 5822 5822 5823 5823 5823 5823 5824 5824 5825 5825 5825 5825 5826 5826 5826
5801 5802 5803 5804 5804 5804 5804 5804 5804 5804 5804 5804 5803 5803 5804 5804 5805 5805 5805 5805 5804 5804 5804 5805 5805 5805 5806 5805 5806 5807 5807 5807 5808 5808 5808 5808 5807 5808 5809 5810 5811 5812 5813 5813 5813 5813 5813 5813 5813 5812 5812 5812 5812 5812 5813 5814 5813 5812 5812 5813 5814 5815 5816 5817 5817 5817 5817 5817 5818 5819 5820 5821 5821 5821 5822 5822 5822 5823 5823 5824 5824 5824 5824 5824 5824
5800 5800 5801 5802 5802 5802 5803 5802 5802 5803 5802 5802 5802 5802 5802 5802 5803 5803 5803 5803 5803 5802 5803 5803 5803 5803 5804 5804 5805 5805 5805 5805 5806 5806 5806 5806 5806 5807 5808 5809 5810 5811 5812 5812 5812 5812 5812 5812 5811 5811 5811 5811 5811 5811 5811 5812 5812 5812 5812 5813 5814 5814 5815 5815 5815 5814 5814 5815 5816 5818 5819 5819 5819 5820 5821 5821 5821 5822 5822 5822 5823 5823 5823 5823 5823
5798 5798 5798 5799 5800 5800 5801 5801 5800 5801 5801 5801 5800 5800 5801 5801 5801 5801 5801 5801 5801 5801 5801 5801 5802 5802 5802 5802 5803 5803 5803 5803 5803 5804 5804 5805 5806 5807 5807 5808 5809 5810 5811 5811 5811 5811 5811 5810 5810 5809 5809 5809 5809 5809 5810 5811 5811 5811 5811 5812 5813 5814 5814 5814 5813 5812 5812 5813 5816 5817 5817 5818 5818 5819 5820 5820 5820 5820 5820 5821 5821 5821 5821 5821 5821
5796 5796 5797 5798 5798 5798 5798 5798 5798 5799 5799 5799 5799 5799 5799 5799 5799 5799 5799 5799 5800 5800 5799 5800 5800 5800 5800 5800 5801 5801 5801 5801 5801 5802 5803 5804 5805 5806 5807 5808 5809 5809 5809 5810 5810 5810 5810 5809 5809 5808 5808 5808 5808 5808 5809 5809 5810 5810 5811 5812 5813 5814 5813 5812 5811 5810 5811 5813 5814 5815 5816 5817 5818 5818 5818 5818 5818 5818 5818 5819 5819 5819 5819 5819 5819
5796 5796 5796 5797 5796 5796 5796 5796 5797 5797 5797 5797 5797 5797 5797 5797 5798 5798 5798 5798 5798 5798 5798 5798 5798 5798 5798 5798 5798 5799 5799 5799 5799 5800 5801 5803 5804 5805 5806 5807 5808 5808 5808 5808 5809 5809 5809 5808 5808 5807 5807 5807 5807 5808 5808 5808 5809 5809 5811 5812 5814 5814 5812 5810 5809 5809 5810 5812 5813 5814 5815 5816 5817 5817 5817 5817 5817 5816 5816 5817 5817 5817 5817 5817 5817
5794 5794 5795 5795 5795 5795 5794 5794 5795 5795 5796 5795 5796 5796 5796 5796 5796 5796 5796 5796 5796 5796 5797 5797 5796 5796 5796 5796 5797 5797 5797 5798 5798 5799 5800 5802 5802 5803 5805 5806 5807 5807 5807 5807 5807 5808 5808 5807 5807 5806 5806 5806 5806 5807 5807 5807 5808 5809 5811 5813 5813 5812 5810 5808 5807 5809 5811 5812 5813 5813 5814 5815 5816 5816 5816 5816 5815 5815 5815 5814 5814 5814 5814 5814 5814
5793 5793 5793 5794 5795 5794 5793 5792 5793 5794 5794 5794 5794 5795 5795 5794 5794 5794 5794 5794 5794 5794 5795 5795 5795 5795 5795 5796 5796 5796 5797 5797 5798 5799 5800 5801 5801 5802 5803 5804 5805 5806 5806 5806 5806 5806 5807 5806 5806 5805 5805 5805 5805 5806 5806 5807 5807 5809 5811 5812 5812 5810 5808 5807 5808 5809 5810 5811 5812 5813 5813 5814 5814 5814 5814 5814 5814 5814 5813 5813 5812 5812 5812 5812 5812
5792 5792 5792 5792 5793 5792 5792 5791 5791 5793 5793 5793 5794 5794 5794 5793 5793 5793 5792 5792 5792 5792 5794 5794 5794 5793 5794 5795 5795 5796 5796 5797 5798 5798 5799 5800 5801 5801 5802 5803 5803 5804 5804 5805 5805 5805 5806 5805 5805 5804 5804 5804 5804 5805 5806 5807 5807 5809 5810 5811 5809 5807 5807 5807 5808 5809 5809 5810 5811 5811 5812 5812 5812 5812 5813 5813 5813 5812 5812 5811 5811 5811 5811 5810 5811
5790 5790 5790 5791 5791 5790 5790 5789 5790 5791 5792 5792 5793 5792 5791 5791 5791 5791 5791 5791 5791 5792 5793 5793 5793 5792 5793 5793 5794 5795 5796 5797 5797 5798 5798 5799 5800 5801 5801 5802 5802 5803 5803 5803 5804 5804 5805 5805 5804 5804 5803 5803 5804 5804 5805 5806 5807 5809 5809 5808 5807 5806 5806 5807 5808 5809 5809 5809 5809 5810 5810 5810 5811 5811 5811 5811 5811 5811 5810 5810 5810 5809 5809 5809 5809
5788 5788 5788 5789 5789 5788 5788 5788 5788 5790 5791 5791 5790 5790 5789 5789 5790 5790 5790 5790 5791 5791 5791 5792 5791 5791 5792 5792 5793 5794 5795 5796 5796 5797 5797 5798 5799 5800 5800 5801 5801 5802 5802 5802 5803 5803 5804 5804 5803 5803 5803 5803 5803 5804 5805 5805 5807 5807 5807 5807 5806 5805 5805 5806 5808 5808 5808 5808 5808 5808 5809 5809 5810 5810 5810 5810 5810 5810 5809 5809 5808 5808 5807 5807 5807
5786 5787 5786 5787 5787 5786 5786 5786 5786 5787 5788 5788 5787 5787 5787 5788 5789 5789 5789 5790 5790 5790 5790 5790 5790 5790 5790 5791 5792 5793 5793 5794 5794 5795 5796 5797 5798 5798 5799 5799 5800 5800 5801 5801 5802 5803 5803 5803 5803 5803 5802 5802 5803 5803 5804 5805 5805 5806 5806 5806 5805 5805 5805 5806 5807 5807 5807 5807 5807 5808 5808 5809 5809 5809 5809 5809 5809 5809 5808 5808 5807 5806 5806 5806 5806
5785 5785 5785 5785 5785 5784 5784 5784 5784 5784 5785 5785 5784 5785 5785 5786 5787 5787 5787 5788 5788 5788 5788 5788 5788 5789 5790 5790 5791 5791 5792 5792 5793 5794 5795 5796 5796 5797 5798 5798 5799 5799 5800 5800 5801 5802 5802 5802 5802 5802 5802 5802 5802 5803 5803 5803 5804 5804 5805 5805 5804 5804 5804 5805 5806 5806 5806 5806 5806 5807 5807 5808 5808 5807 5807 5807 5808 5808 5807 5806 5806 5806 5806 5806 5805
5783 5783 5783 5783 5783 5783 5783 5783 5783 5783 5782 5782 5782 5783 5784 5784 5785 5785 5785 5785 5785 5786 5786 5787 5788 5788 5789 5790 5790 5790 5791 5791 5792 5793 5794 5795 5795 5796 5796 5797 5798 5798 5799 5799 5800 5800 5801 5801 5801 5802 5802 5802 5802 5802 5802 5802 5803 5803 5803 5803 5803 5803 5804 5805 5806 5806 5806 5806 5806 5806 5806 5807 5807 5807 5807 5807 5806 5806 5806 5805 5806 5806 5806 5805 5805
5782 5782 5782 5781 5781 5781 5781 5781 5781 5781 5781 5781 5781 5781 5781 5782 5782 5783 5783 5784 5784 5785 5785 5786 5787 5788 5789 5789 5789 5790 5790 5791 5792 5792 5793 5794 5794 5794 5795 5796 5797 5797 5797 5798 5798 5799 5799 5800 5800 5800 5801 5801 5802 5802 5802 5802 5802 5802 5802 5802 5803 5803 5804 5805 5805 5805 5805 5805 5805 5805 5805 5806 5806 5806 5806 5806 5805 5805 5804 5804 5805 5805 5805 5804 5804
5780 5780 5780 5780 5780 5780 5780 5780 5779 5779 5779 5779 5779 5779 5780 5780 5780 5781 5782 5782 5783 5784 5785 5786 5786 5787 5788 5788 5788 5789 5790 5790 5791 5791 5792 5792 5793 5793 5794 5795 5795 5796 5796 5797 5797 5797 5798 5798 5798 5799 5800 5800 5801 5801 5801 5801 5802 5802 5802 5801 5802 5803 5803 5804 5804 5804 5803 5803 5804 5804 5804 5805 5805 5805 5805 5804 5803 5803 5803 5803 5804 5804 5803 5803 5803
5778 5778 5778 5778 5778 5778 5778 5778 5778 5778 5777 5778 5778 5778 5778 5779 5779 5779 5780 5780 5781 5782 5783 5784 5785 5785 5786 5786 5787 5788 5788 5789 5790 5790 5791 5791 5792 5792 5793 5794 5794 5795 5795 5796 5796 5796 5797 5797 5797 5798 5798 5799 5799 5800 5800 5800 5800 5801 5801 5801 5801 5802 5803 5803 5803 5802 5802 5802 5802 5803 5803 5804 5804 5803 5803 5802 5801 5801 5802 5802 5802 5802 5802 5801 5801
5776 5776 5776 5776 5776 5776 5777 5776 5776 5776 5776 5776 5776 5777 5777 5777 5777 5778 5778 5779 5780 5781 5782 5783 5783 5784 5785 5785 5786 5786 5787 5787 5788 5789 5789 5790 5791 5791 5791 5792 5793 5793 5794 5794 5795 5795 5795 5796 5796 5797 5797 5798 5798 5798 5799 5798 5798 5799 5799 5800 5800 5801 5802 5802 5801 5801 5801 5801 5801 5801 5802 5802 5802 5801 5800 5800 5800 5801 5801 5801 5801 5800 5800 5800 5799
5775 5775 5774 5774 5774 5775 5775 5775 5774 5774 5774 5774 5775 5775 5775 5775 5776 5776 5776 5777 5778 5779 5780 5781 5782 5783 5784 5784 5785 5785 5785 5786 5787 5787 5788 5788 5789 5790 5790 5791 5791 5792 5792 5793 5793 5794 5794 5795 5795 5796 5796 5797 5797 5797 5797 5797 5797 5797 5798 5798 5799 5800 5800 5800 5800 5800 5800 5800 5799 5800 5801 5800 5800 5799 5799 5799 5799 5799 5799 5799 5799 5799 5799 5798 5798
5773 5773 5772 5772 5772 5773 5773 5773 5773 5773 5773 5773 5773 5773 5773 5774 5774 5774 5774 5775 5776 5777 5779 5780 5781 5781 5782 5783 5784 5784 5784 5784 5785 5785 5786 5786 5787 5788 5788 5789 5790 5790 5790 5791 5792 5792 5793 5793 5794 5794 5795 5796 5796 5796 5796 5796 5796 5796 5796 5797 5798 5798 5799 5798 5799 5799 5798 5798 5798 5799 5799 5798 5798 5797 5797 5798 5798 5798 5798 5797 5797 5797 5797 5797 5796
5771 5770 5770 5770 5770 5771 5771 5771 5771 5771 5771 5771 5771 5772 5772 5772 5772 5773 5773 5774 5775 5776 5777 5778 5779 5780 5780 5781 5782 5782 5782 5783 5783 5783 5784 5784 5785 5786 5787 5787 5788 5789 5789 5789 5790 5791 5791 5792 5792 5793 5794 5794 5795 5795 5795 5795 5796 5796 5796 5796 5796 5797 5797 5797 5797 5797 5797 5797 5797 5797 5798 5797 5796 5796 5796 5796 5797 5797 5796 5796 5795 5795 5795 5795 5795
5768 5768 5768 5768 5769 5769 5769 5769 5770 5770 5770 5770 5770 5771 5771 5771 5771 5772 5772 5773 5774 5775 5776 5776 5777 5778 5778 5779 5780 5780 5781 5781 5781 5782 5782 5783 5784 5785 5785 5786 5787 5787 5787 5788 5789 5790 5790 5790 5791 5791 5792 5793 5793 5793 5794 5794 5794 5794 5794 5795 5795 5796 5796 5796 5796 5796 5796 5796 5796 5796 5796 5795 5794 5794 5795 5795 5796 5795 5795 5794 5794 5794 5794 5793 5793
5766 5766 5766 5766 5767 5767 5767 5767 5768 5768 5769 5769 5769 5770 5770 5770 5770 5771 5771 5772 5773 5774 5774 5775 5776 5776 5777 5777 5778 5778 5779 5780 5780 5780 5781 5782 5783 5784 5784 5785 5786 5786 5786 5787 5788 5789 5789 5789 5790 5790 5791 5791 5792 5792 5792 5792 5793 5793 5793 5794 5795 5795 5795 5795 5795 5796 5795 5795 5795 5795 5794 5793 5793 5793 5794 5794 5794 5794 5793 5792 5792 5792 5791 5791 5791
5763 5764 5764 5764 5765 5765 5765 5766 5766 5766 5767 5768 5768 5769 5769 5769 5769 5770 5770 5771 5772 5773 5773 5774 5774 5775 5775 5775 5776 5777 5778 5779 5779 5779 5780 5781 5782 5783 5784 5784 5785 5785 5785 5786 5787 5787 5788 5788 5789 5789 5789 5790 5790 5790 5791 5791 5791 5791 5792 5793 5794 5794 5794 5795 5795 5794 5794 5794 5794 5794 5793 5792 5791 5792 5792 5792 5793 5792 5790 5790 5791 5790 5789 5789 5789
5761 5762 5762 5762 5763 5763 5763 5764 5765 5765 5766 5767 5767 5767 5768 5768 5769 5769 5770 5770 5771 5771 5772 5772 5773 5773 5774 5774 5775 5776 5777 5778 5778 5779 5779 5780 5781 5782 5783 5783 5783 5784 5784 5784 5785 5786 5787 5787 5787 5788 5788 5788 5789 5789 5789 5789 5790 5790 5791 5792 5792 5792 5793 5793 5793 5793 5792 5793 5793 5792 5791 5790 5790 5790 5790 5791 5791 5790 5789 5789 5789 5788 5788 5787 5787